Theta_e
300 300 300 300 300 300 301 300 299 301 301 300 300 299 300 300 301 298 292 293 289 283 282 282 283 278 278 275 269 270 271 270 269 263 261 268 262 269 266 269 268 267 259 254 254 256 260 273 273 268 271 274 274 275
300 299 300 300 300 300 300 300 299 300 300 300 300 300 299 299 300 299 291 294 294 286 282 284 286 287 285 282 278 270 274 267 274 268 263 265 260 263 264 260 271 265 269 263 265 264 274 276 275 278 278 276 277 276
298 299 299 299 299 300 300 300 300 300 300 299 299 300 300 299 299 298 290 290 290 285 284 284 282 285 286 286 286 277 272 279 277 279 273 273 268 270 260 262 266 270 273 270 271 274 274 277 279 278 278 277 278 277
296 297 298 299 299 299 299 299 299 299 299 299 299 299 299 298 298 298 290 293 291 286 279 279 281 282 287 287 285 285 283 281 281 280 277 274 268 276 270 272 271 273 272 269 271 274 276 276 278 278 279 278 276 275
296 296 297 297 298 298 298 298 298 298 299 299 299 299 298 298 298 294 292 292 293 286 279 279 277 281 283 285 284 284 282 281 280 278 276 274 274 275 271 274 271 276 273 271 269 276 275 276 279 277 277 276 272 271
295 296 296 296 296 297 297 298 298 298 298 298 298 298 298 297 297 290 284 289 293 292 282 276 279 274 279 282 282 282 283 282 282 279 277 277 279 277 272 269 275 277 278 278 276 279 278 279 273 272 272 270 270 269
295 295 295 295 296 296 296 297 297 297 297 297 298 298 298 297 292 285 281 286 293 292 282 277 274 275 278 278 275 278 281 282 281 279 277 277 276 279 274 270 276 277 278 278 279 274 275 274 271 269 269 268 267 266
293 294 294 295 295 295 295 296 296 296 296 297 297 297 297 297 295 288 290 293 293 287 283 275 272 266 274 271 272 279 277 279 279 278 275 275 276 277 271 275 277 278 278 274 269 269 268 267 268 266 265 264 262 263
292 293 293 293 294 294 294 295 295 295 296 296 297 296 293 290 284 284 294 295 292 285 277 275 269 263 275 273 275 272 278 272 278 274 275 274 267 268 272 275 276 276 270 268 265 265 264 264 263 262 261 260 259 260
291 291 292 292 292 293 293 294 294 294 295 296 292 285 281 285 292 292 284 282 283 282 280 274 261 263 275 272 268 270 273 270 267 271 275 271 270 275 275 265 265 264 263 263 262 260 258 257 259 259 259 259 259 259
289 290 290 291 291 292 292 293 293 293 294 288 283 281 284 292 283 280 276 275 276 274 278 272 268 264 273 270 270 275 272 273 268 265 267 256 258 271 264 262 263 262 261 259 259 259 258 257 257 257 257 258 257 256
288 289 289 290 290 291 292 292 292 290 287 287 285 287 286 282 278 274 273 272 268 265 263 265 267 273 273 276 273 273 270 271 266 257 260 256 265 262 260 259 258 257 256 256 256 255 256 257 257 255 255 254 254 255
289 289 289 289 290 290 291 292 292 292 291 285 282 278 278 276 270 269 265 262 259 257 261 264 267 272 275 276 273 272 268 267 259 262 259 262 260 255 254 255 254 254 255 254 254 254 253 253 253 252 252 253 253 252
289 288 289 289 289 290 290 290 291 291 285 278 275 271 271 269 271 262 263 264 265 264 263 265 263 269 271 272 273 267 267 265 261 256 257 261 253 252 253 253 251 251 250 251 249 250 251 251 251 251 251 251 250 249
288 288 288 288 289 289 289 290 290 288 282 276 275 269 270 261 253 249 248 259 258 263 268 266 266 274 269 270 272 268 262 260 258 259 259 251 252 251 251 250 248 249 247 246 246 246 248 249 248 248 248 247 247 248
288 287 282 287 288 288 289 288 286 285 281 277 271 267 260 261 255 254 250 258 259 266 264 268 265 269 267 268 267 263 259 257 263 252 247 252 250 250 247 248 247 244 243 244 244 244 247 246 247 247 246 247 247 247
287 274 286 287 287 287 288 282 281 271 271 268 263 259 262 263 265 260 259 260 264 263 261 264 264 263 267 265 260 258 259 259 248 245 250 250 250 250 249 242 242 242 243 241 241 241 242 244 241 241 244 248 247 250
277 277 286 287 284 281 274 271 271 267 261 259 263 257 256 255 256 257 255 262 265 263 262 262 267 261 260 258 255 255 247 244 246 249 250 247 243 240 240 241 242 241 242 241 240 241 240 242 244 247 247 250 254 255
282 283 286 286 282 272 269 264 265 260 253 253 255 256 255 254 256 256 255 261 261 260 262 262 264 261 258 251 249 243 240 245 246 248 248 244 245 241 241 241 241 241 241 241 242 244 245 245 249 253 254 256 255 256
281 282 281 281 279 270 264 262 265 259 256 255 252 251 253 252 253 252 254 259 261 262 260 261 259 249 250 247 246 245 246 247 245 242 244 247 246 241 243 242 244 242 242 243 244 250 249 252 254 254 254 255 255 255
275 274 278 271 268 265 262 260 256 258 256 253 252 253 252 252 247 248 251 256 260 261 256 247 247 247 241 238 239 240 246 247 244 244 245 244 245 244 243 243 242 242 244 244 247 251 253 252 253 254 254 254 255 255
270 275 268 272 265 259 258 257 257 258 252 250 252 253 249 248 247 249 251 254 256 250 249 247 242 240 240 241 240 237 238 238 238 242 245 246 247 249 249 249 249 247 249 250 251 251 252 253 253 253 253 253 254 254
268 268 264 263 261 256 253 256 251 251 254 251 251 252 251 250 249 254 255 248 244 242 238 237 236 234 238 235 235 236 236 240 241 242 244 247 249 251 251 251 251 250 251 252 252 252 252 253 253 252 252 252 251 251
262 254 253 253 256 253 252 252 254 252 253 252 252 250 250 249 248 250 248 240 241 238 237 237 237 240 240 240 240 239 239 239 240 241 241 245 248 251 252 252 251 252 252 252 252 252 252 251 252 252 251 250 249 248
256 247 248 245 248 248 250 250 250 254 252 248 250 249 246 239 244 243 245 242 238 238 238 234 236 240 241 237 238 239 238 243 246 246 247 249 249 251 252 252 252 252 252 251 251 250 250 250 250 249 250 248 248 248
243 241 243 238 243 248 245 249 246 244 241 241 240 239 237 242 245 247 243 241 237 239 239 242 243 240 241 241 245 246 248 249 250 250 251 252 252 252 249 249 250 251 252 251 249 248 249 249 248 248 249 249 249 247
242 240 240 240 242 241 244 243 241 241 241 243 240 240 241 245 244 246 242 242 242 241 242 244 245 246 248 246 246 248 249 252 252 253 251 251 252 252 251 250 250 252 251 250 249 248 247 247 248 248 249 249 247 247
239 237 241 239 239 235 238 238 239 240 240 239 239 244 245 246 245 246 247 247 242 240 243 246 248 248 247 249 251 253 252 252 251 251 251 251 251 251 251 252 252 257 250 250 250 250 248 248 247 247 247 247 248 246
241 237 237 240 239 241 238 239 239 237 239 237 242 244 245 246 244 244 247 247 244 247 248 248 248 248 250 252 252 252 251 251 250 250 248 249 249 251 249 249 249 249 248 247 252 255 251 249 249 249 248 248 248 241
239 236 244 243 244 243 240 237 236 232 232 234 235 241 243 244 245 242 240 242 245 246 246 248 250 251 251 251 251 250 246 247 248 248 246 245 247 245 242 242 244 244 243 241 246 247 250 248 246 243 243 244 244 244
232 232 237 236 239 236 233 229 228 229 230 230 228 234 237 237 240 239 241 241 243 244 247 248 248 249 250 250 245 244 247 244 242 244 244 244 244 245 245 246 247 245 243 243 244 244 245 243 242 243 243 244 245 246
233 232 236 240 238 233 229 229 229 232 232 235 237 231 238 242 246 249 248 246 246 247 250 248 249 250 245 244 241 241 246 243 244 247 247 248 248 248 248 248 246 243 243 244 245 244 243 243 244 245 246 245 245 245
234 234 234 236 238 238 233 233 235 236 234 234 236 236 237 240 247 247 247 245 247 247 247 245 243 241 242 243 244 246 249 250 250 253 255 254 253 253 251 249 247 246 245 246 246 246 245 245 246 246 246 246 246 246
Wind_Speed
22 22 22 21 21 22 21 19 20 20 20 19 19 20 19 16 17 13 4 8 9 5 8 8 10 7 3 4 6 5 4 3 3 3 4 4 4 4 1 4 4 4 4 4 4 1 9 4 2 5 7 4 6 7
24 23 23 24 24 24 23 24 23 22 20 19 18 19 22 18 20 13 4 7 9 5 3 5 16 17 15 10 7 4 7 6 6 3 1 2 2 1 3 5 2 4 7 6 11 8 4 5 6 15 11 10 13 5
21 22 24 23 22 24 25 24 22 23 22 21 21 21 21 17 17 13 3 5 3 5 5 5 10 7 6 13 11 7 3 7 5 4 4 4 7 4 3 8 4 6 6 9 11 11 14 17 17 12 10 12 10 6
23 22 22 24 24 22 22 22 23 22 22 24 20 19 18 20 18 16 4 5 6 3 5 7 2 6 9 10 14 15 8 1 3 4 6 5 4 6 6 8 8 9 4 6 13 14 15 18 16 17 16 9 5 2
25 24 23 23 24 24 23 22 22 21 22 23 21 20 21 20 18 10 4 6 8 8 3 1 1 7 7 13 15 12 11 8 5 5 5 7 3 5 3 5 12 12 17 11 15 16 14 19 15 1 3 1 3 4
25 25 24 23 22 22 23 23 22 21 21 22 22 22 21 19 16 3 3 6 10 8 5 4 1 3 4 9 15 15 13 8 7 4 5 5 5 7 6 9 20 13 13 16 20 18 19 17 6 4 2 2 2 3
21 22 22 22 22 22 22 23 23 22 22 23 23 23 23 23 7 5 6 4 9 7 3 2 3 2 1 4 1 3 5 5 6 5 6 6 6 8 6 14 17 13 14 13 14 3 11 3 2 3 3 2 3 3
18 19 20 20 21 21 22 22 22 22 22 23 23 22 23 24 18 9 8 10 8 2 4 4 3 4 4 3 4 4 5 5 5 4 1 5 3 6 8 13 17 19 15 7 4 3 3 3 2 3 4 5 5 5
18 18 18 18 19 21 21 22 21 21 22 22 21 20 10 9 5 4 13 17 7 5 4 4 6 6 5 3 3 1 3 4 3 6 6 5 4 8 8 14 17 13 6 4 3 3 4 3 1 2 4 4 5 7
17 18 19 20 18 19 19 19 19 19 19 20 12 5 4 5 11 12 3 3 7 6 6 4 2 3 5 4 2 3 4 5 5 7 4 6 11 13 8 3 4 5 5 4 3 1 1 0 1 3 3 5 7 9
19 18 17 18 19 18 17 18 18 17 16 4 5 4 1 13 4 3 5 5 5 3 3 2 6 5 3 5 5 5 4 3 4 6 7 3 5 9 6 6 7 8 7 6 4 3 1 2 3 5 6 5 7 8
20 21 21 20 17 17 18 17 17 10 3 6 6 4 3 4 4 7 7 4 4 8 1 5 4 3 3 3 3 4 4 4 5 2 4 4 7 3 6 6 7 7 5 5 3 2 3 4 4 6 6 7 8 8
20 22 18 19 20 17 16 19 17 11 14 3 4 6 6 5 8 9 10 2 2 3 5 3 2 3 3 3 3 5 6 5 2 2 6 7 2 4 4 4 4 4 4 2 2 2 3 5 5 4 7 7 8 8
19 18 20 16 19 19 19 16 19 14 5 4 6 8 8 6 6 6 7 8 6 5 7 4 2 3 2 5 3 4 2 3 2 2 8 5 2 5 3 3 2 2 3 4 4 4 5 6 6 5 6 7 6 8
15 15 16 17 18 18 19 16 18 8 3 5 4 6 5 0 4 2 1 4 1 5 7 4 3 5 2 3 3 4 2 5 7 8 6 2 4 5 4 2 1 2 2 3 3 4 6 6 6 7 7 7 6 8
14 14 7 11 12 12 14 13 6 3 3 5 3 4 2 3 3 2 1 2 3 4 3 3 4 4 5 4 6 7 6 8 9 4 2 4 3 2 2 1 2 4 3 4 4 4 5 6 6 6 7 7 7 6
9 3 5 12 12 13 14 3 4 4 2 3 2 3 2 2 2 2 2 3 2 4 4 4 7 9 2 3 3 5 8 5 4 2 2 3 3 2 1 2 4 4 4 4 3 4 5 5 3 3 6 6 6 6
3 5 9 9 7 10 4 6 3 4 5 3 1 2 3 3 2 1 3 1 2 3 3 6 4 3 6 7 6 5 2 1 1 3 3 2 2 3 3 3 4 4 5 5 4 4 3 4 4 4 5 6 5 4
9 9 9 1 9 6 3 4 4 5 2 1 2 2 2 2 2 2 1 1 1 2 3 2 4 4 5 3 3 2 1 2 4 2 2 1 1 2 2 3 4 3 3 3 2 3 3 4 4 4 4 5 4 3
6 13 15 18 10 4 5 4 3 4 3 2 3 2 3 2 1 2 2 3 2 1 1 4 5 3 3 3 3 3 3 4 4 3 1 1 1 2 2 2 2 3 2 3 3 3 3 3 3 4 4 4 4 4
6 6 12 7 4 7 5 2 4 3 3 3 0 1 2 2 2 3 1 3 3 2 2 0 1 2 2 1 1 1 4 3 3 4 4 2 2 2 0 2 2 1 1 1 2 3 4 4 4 4 4 4 4 3
2 9 3 5 5 5 6 4 4 3 4 2 2 1 3 2 1 1 2 0 1 2 0 2 2 3 1 1 1 2 3 5 3 3 4 4 3 1 1 1 1 1 1 1 1 2 3 4 4 4 4 4 5 3
5 5 5 5 5 6 2 2 6 6 3 1 1 3 2 1 1 3 1 1 2 1 0 0 1 1 3 1 2 3 2 5 3 2 1 1 1 2 2 2 1 0 1 0 1 2 2 5 4 4 4 4 3 3
11 9 8 6 6 3 2 4 2 3 2 3 2 2 1 2 5 2 2 2 3 1 1 3 3 3 3 4 2 2 3 3 3 1 1 3 1 2 2 2 2 2 1 2 2 2 2 3 4 3 3 3 3 2
9 11 6 7 4 4 5 3 3 1 3 2 2 0 1 3 2 1 2 4 1 2 2 1 1 2 4 1 2 3 3 3 3 3 2 3 2 0 1 2 2 3 2 1 1 2 2 2 2 3 3 2 4 5
11 5 6 1 3 3 1 2 1 2 2 2 1 3 2 3 3 3 4 3 3 4 4 5 5 2 1 3 3 1 3 4 2 1 2 4 4 3 2 2 1 3 4 3 2 2 3 3 3 5 5 6 6 5
7 5 3 1 2 2 2 2 2 3 2 2 2 1 3 3 2 4 3 2 2 3 4 4 4 3 3 2 2 2 1 4 3 2 1 1 2 3 4 4 5 4 4 5 4 4 4 4 5 5 6 6 5 5
3 3 3 5 3 0 4 2 2 1 2 1 2 2 4 5 4 3 3 1 3 2 2 2 2 3 2 2 2 3 2 2 1 3 3 4 5 4 5 5 4 7 4 5 5 5 5 6 5 6 6 7 8 3
3 2 1 4 3 3 2 2 2 2 1 2 2 1 3 3 2 2 2 2 1 2 3 3 1 1 1 2 2 2 2 3 2 1 2 3 3 3 2 3 3 3 2 3 7 8 8 7 8 8 9 7 6 3
4 3 2 2 2 2 2 0 2 2 1 1 2 3 3 3 2 2 2 2 1 1 2 2 2 3 2 2 1 2 2 4 4 5 4 4 5 3 2 3 3 3 2 3 5 5 7 5 5 3 3 4 4 4
2 3 3 2 0 2 2 2 2 1 2 2 2 2 4 4 5 2 1 2 1 1 2 1 1 2 3 3 3 1 4 2 4 6 5 4 4 5 5 5 5 4 4 5 5 5 5 3 4 6 7 8 8 7
3 2 1 3 3 3 3 3 1 2 3 3 2 1 3 2 3 2 1 0 1 1 4 2 2 3 4 3 3 3 4 3 4 5 7 5 6 7 6 5 4 3 4 5 5 5 5 8 7 7 9 10 10 9
0 1 1 1 4 4 3 3 4 3 3 3 2 1 1 2 1 4 2 2 3 2 3 3 4 3 4 5 5 4 6 5 7 9 10 11 12 11 6 5 5 5 7 7 7 6 9 9 10 11 11 11 11 10
Wind_Direction
253 250 248 246 245 249 248 237 245 250 235 235 233 233 238 238 238 209 181 195 189 210 224 188 184 163 155 144 153 221 46 335 48 97 132 234 194 221 267 247 204 198 172 203 56 19 275 193 76 148 215 246 210 212
262 259 258 252 252 250 247 244 244 244 233 229 238 227 238 239 230 226 216 187 213 234 265 218 214 212 199 172 159 223 189 166 184 115 267 76 280 281 176 258 119 283 189 200 193 210 229 198 226 280 267 256 271 229
270 270 258 258 254 252 252 248 245 242 239 248 243 244 237 236 237 243 182 150 190 244 244 203 221 224 192 192 188 184 264 189 202 166 149 200 228 145 188 242 218 250 194 241 265 251 260 272 274 268 260 244 254 257
268 265 265 259 256 253 246 248 245 248 237 235 242 234 227 229 230 228 196 177 210 220 241 248 339 195 191 198 203 214 218 112 150 154 215 204 204 197 226 248 235 232 161 243 254 257 267 265 256 260 272 275 282 52
262 262 261 261 256 252 248 246 246 246 244 243 242 237 232 231 234 235 194 201 196 222 287 258 293 230 199 191 198 204 202 201 195 196 209 227 197 212 217 237 247 236 248 240 253 258 252 265 270 58 229 229 38 6
261 258 259 257 255 254 251 248 247 244 244 241 237 234 231 229 226 109 248 216 196 198 248 232 243 248 193 186 195 197 202 204 211 205 220 219 179 195 235 242 254 258 235 233 251 256 258 269 96 75 135 81 33 339
263 259 255 255 255 253 250 247 246 246 244 241 238 235 228 226 200 180 191 178 193 173 244 268 242 252 114 108 152 140 183 200 209 219 223 234 230 207 240 253 267 249 233 233 245 241 262 185 197 74 61 15 353 296
266 263 261 259 256 254 252 250 248 247 245 242 238 234 233 229 228 218 208 165 127 218 231 215 230 2 189 162 195 175 166 190 205 221 192 214 223 215 243 248 255 257 255 229 135 66 78 86 95 35 21 351 331 336
270 268 267 265 261 257 254 250 249 248 246 242 236 233 236 215 194 200 174 207 177 197 240 194 171 231 161 172 127 13 169 187 185 215 216 157 220 219 221 245 250 248 183 150 107 87 96 112 73 24 350 347 317 315
269 270 267 262 264 262 254 252 244 245 248 239 221 196 200 188 145 125 112 191 207 201 211 202 58 202 160 164 190 126 183 209 201 217 159 211 239 244 256 86 90 101 95 107 123 195 50 142 352 330 317 300 294 302
261 260 265 269 258 254 255 243 242 249 241 199 190 184 111 156 89 149 188 195 195 219 212 140 175 147 248 149 181 223 198 188 217 243 169 252 268 238 130 119 104 97 97 79 67 68 71 201 284 300 298 298 296 294
269 266 250 252 253 254 246 240 240 241 195 193 129 116 137 188 171 183 180 165 164 211 270 145 205 165 162 129 143 181 198 185 228 102 107 266 248 76 108 107 86 73 73 81 47 12 337 307 311 298 292 288 287 287
256 258 265 258 251 248 241 241 230 228 174 128 200 177 165 172 198 181 170 225 142 174 199 171 201 134 137 183 191 193 206 216 90 114 218 225 169 138 132 119 110 76 60 51 15 343 306 292 288 268 284 279 283 286
259 257 255 250 248 239 247 238 241 218 220 169 182 200 194 172 196 179 170 164 213 143 147 129 106 155 186 181 185 209 112 131 161 204 232 235 155 119 108 82 88 55 0 327 315 316 307 292 288 279 271 277 278 275
272 247 251 257 246 243 233 238 238 217 193 216 189 214 202 122 47 280 300 100 242 135 129 93 69 150 199 214 206 120 156 229 202 222 226 204 142 136 131 112 80 319 312 285 270 269 279 283 282 280 270 264 258 268
293 255 238 229 234 236 225 230 218 198 226 186 121 128 65 69 334 340 296 149 213 134 88 75 132 171 196 196 193 208 148 217 241 206 196 110 112 104 126 197 264 256 256 268 268 251 278 272 267 267 290 282 272 255
271 200 262 243 236 232 228 136 197 66 14 92 85 6 78 62 84 87 181 195 238 91 157 128 157 203 86 182 224 192 206 233 182 199 137 95 136 150 187 270 274 277 289 280 275 280 266 275 299 340 315 295 286 271
31 300 315 278 223 75 40 23 61 88 72 29 129 81 40 46 87 59 313 321 149 148 116 190 122 162 187 182 242 217 170 136 24 115 126 136 181 227 204 244 284 272 271 272 265 288 291 311 321 290 281 279 296 296
24 359 322 138 102 90 74 35 4 86 76 55 35 56 90 111 68 23 336 344 21 22 90 96 164 184 218 197 182 225 221 194 157 146 126 229 185 192 243 247 264 286 292 278 301 286 273 259 260 297 309 314 315 315
23 26 41 50 57 84 80 33 29 83 114 133 63 46 65 55 7 356 349 10 24 81 219 215 200 182 151 199 181 165 147 147 121 82 340 259 185 140 217 203 254 271 300 327 318 335 334 334 343 334 325 330 333 338
33 346 27 58 64 54 68 75 59 76 114 82 255 83 100 50 31 37 343 337 224 196 228 219 163 112 37 278 309 85 102 125 162 153 167 162 226 163 330 288 255 11 84 338 353 345 8 351 328 333 332 336 340 348
345 14 54 33 79 55 70 16 109 123 88 166 138 289 62 72 354 2 291 139 63 72 78 156 193 156 117 135 185 118 152 110 83 85 73 83 107 133 191 220 113 329 356 14 348 350 330 333 335 336 341 342 350 0
24 34 51 19 83 51 347 355 64 1 80 24 355 79 48 38 348 301 229 31 281 10 34 146 203 239 139 227 97 66 126 125 119 148 156 168 201 218 201 195 187 132 308 321 329 317 321 334 333 340 338 340 343 346
30 46 34 39 22 76 356 37 49 72 62 48 56 107 101 349 332 45 239 272 257 318 222 206 168 77 24 31 73 217 207 142 114 56 200 136 183 229 205 217 194 211 232 292 297 306 313 321 331 333 336 334 335 319
72 1 22 13 11 47 49 43 17 69 94 43 109 41 290 5 71 9 234 271 278 239 220 227 101 97 138 248 297 266 220 141 139 162 235 181 170 115 244 239 229 210 164 249 263 281 294 298 302 308 314 305 321 321
67 320 46 294 338 55 8 95 66 162 121 79 241 271 9 84 63 267 247 238 231 202 189 183 166 130 300 194 134 130 214 180 135 150 256 186 197 194 201 211 256 271 189 192 193 251 280 287 291 306 303 307 309 307
60 337 330 351 122 121 81 49 76 89 91 148 231 56 73 77 260 260 288 224 219 233 205 170 162 147 144 165 244 263 158 159 176 179 149 201 215 198 189 202 226 238 159 179 198 211 250 279 287 284 286 292 263 261
122 26 58 310 27 10 128 67 64 91 235 253 75 53 134 170 228 255 226 293 217 243 144 124 104 125 142 200 173 135 140 133 301 288 272 245 229 219 214 227 227 229 200 205 222 222 224 240 255 265 267 271 285 247
39 335 52 5 3 42 65 121 206 252 281 106 120 289 272 254 256 304 337 337 326 83 89 98 24 104 74 49 80 113 131 151 130 332 313 291 331 299 196 210 220 221 212 229 257 246 229 233 242 245 251 256 269 270
345 355 349 30 53 19 285 148 245 277 295 221 297 301 288 278 273 337 329 357 51 176 187 157 135 158 177 171 234 295 240 196 193 178 193 233 229 247 266 249 248 247 221 219 254 272 287 302 307 317 300 290 273 273
312 14 39 45 226 265 255 292 291 311 14 12 344 146 254 305 308 258 238 244 234 101 102 132 190 195 186 205 189 197 295 278 219 238 246 258 263 261 257 249 241 227 223 231 242 246 257 254 240 264 270 270 270 263
7 72 76 3 311 294 20 41 6 39 336 20 321 293 305 307 322 307 18 69 100 211 232 206 208 246 218 232 230 245 231 260 242 235 239 240 249 250 249 247 230 213 226 238 237 239 235 246 260 258 265 268 267 267
348 199 187 322 355 1 331 37 13 358 19 20 321 329 329 318 69 295 334 207 237 238 243 229 238 240 236 236 234 250 245 247 262 268 260 253 253 257 256 237 228 217 228 239 243 237 244 246 256 258 260 261 266 267